User: anonymous   Login
Location: Albany
(35.0000°S, 118.0000°E)
Time: 12:57:05
(UTC-05:00)
Language:

Cosmos 1346 Rocket - Orbit

View from above orbital plane
View from above orbital plane
View from above satellite
View from above satellite

Ground track
Ground track

The orbit data is extracted from the following two-line orbital elements,

1 13121U 82027B   14354.82398499  .00004815  00000-0  32607-3 0  5711
2 13121 081.1697 082.6080 0027271 290.4459 069.3836 15.06019755779971
Epoch (UTC): 20 December 2014 19:46:32
Eccentricity: 0.0027271
inclination: 81.1697°
perigee height: 529 km
apogee height: 567 km
right ascension of ascending node: 82.6080°
argument of perigee: 290.4459°
revolutions per day: 15.06019755
mean anomaly at epoch: 69.3836°
orbit number at epoch: 77997

The dashed part of the orbit path shows where the satellite is in the earth's shadow,  

DLR